Regional Weather Roundup
Issued by NWS

Home | Current Version | Previous Version | Text Only | Print | Product List | Glossary On
Versions: 1 2 3 4 5 6 7 8 9 10 11 12 13 14 15 16 17 18 19 20 21 22 23 24 25 26 27 28 29 30 31 32 33 34 35 36 37 38 39 40 41 42 43 44 45 46 47 48 49 50
000
ASUS43 KDMX 010307
RWRIA

WEATHER ROUNDUP FOR IOWA
NATIONAL WEATHER SERVICE DES MOINES IA
1000 PM CDT SUN AUG 31 2014

NOTE: "FAIR" INDICATES FEW OR NO CLOUDS BELOW 12,000 FEET WITH NO
SIGNIFICANT WEATHER AND/OR OBSTRUCTIONS TO VISIBILITY.

* - THESE STATIONS ARE NOT NWS STATIONS...THUS NOT UNDER NWS
QUALITY CONTROL.  THEY ALSO DO NOT REPORT WEATHER SUCH
AS PRECIPITATION OR FOG.

IAZ001>003-012>014-020>022-031>034-043>046-010400-
   NORTHWEST IOWA

CITY           SKY/WX    TMP DP  RH WIND       PRES   REMARKS
CARROLL *      CLOUDY    66  64  94 S8        29.68F
CHEROKEE *     CLOUDY    64  64 100 CALM      29.68R
DENISON *      CLEAR     66  64  94 CALM      29.64F
LE MARS *      PTCLDY    66  64  94 S7        29.69R
ORANGE CITY *  CLOUDY    70  66  88 CALM      29.69R
SHELDON *      MOCLDY    66  66 100 SE5       29.68S
SIOUX CITY     CLOUDY    65  64  97 SW3       29.67S
SPENCER        CLOUDY    67  64  90 S3        29.70R
STORM LAKE *   PTCLDY    64  64 100 S3        29.65F
$$

IAZ055>058-069>071-079>083-090>094-010400-
   SOUTHWEST IOWA

CITY           SKY/WX    TMP DP  RH WIND       PRES   REMARKS
ATLANTIC *     DRIZZLE   68  68 100 SE5G12    29.71F
AUDUBON *      LGT RAIN  68  66  94 S6        29.71F
CLARINDA *     MOCLDY    70  70 100 E13       29.69F
COUNCIL BLFS *   N/A     68  68 100 SE9       29.66F
CRESTON *      LGT RAIN  72  66  83 NW16G29   29.75R
HARLAN  *      PTCLDY    66  66 100 SE8       29.71F
LAMONI         CLOUDY    79  68  69 S10       29.73F HX  81
RED OAK *      CLOUDY    70  68  94 E13       29.65F
SHENANDOAH *     N/A     72  70  94 SW6G12    29.70S
$$

IAZ047>049-059>061-072>074-084-010400-
   CENTRAL IOWA

CITY           SKY/WX    TMP DP  RH WIND       PRES   REMARKS
AMES           TSTM      66  66 100 W10G21    29.79F FOG
ANKENY *       HVY RAIN  68  66  94 NW15G29   29.79R VSB 3/4
CHARITON *     CLOUDY    77  66  69 SE13      29.73F
DES MOINES     TSTM      70  66  87 NW33G51   29.76R SQUALL  VSB 3/4
GRINNELL*      CLOUDY    79  70  73 SE12      29.75R HX  81
KNOXVILLE *    MOCLDY    79  68  69 SE15G21   29.70S HX  81
MARSHALLTOWN   TSTM      66  63  90 NW30G47   29.85R FOG
PELLA *        CLOUDY    79  70  73 S12       29.74R HX  81
PERRY *        LGT RAIN  68  66  94 CALM      29.74F
$$

IAZ004>006-015-016-023>025-035-036-010400-
   NORTH CENTRAL IOWA

CITY           SKY/WX    TMP DP  RH WIND       PRES   REMARKS
ALGONA *       LGT RAIN  64  64 100 S16G22    29.71R
CLARION *      LGT RAIN  63  63 100 S8G15     29.76F
ESTHERVILLE    LGT RAIN  65  64  97 SW9       29.72R
FORT DODGE *   CLOUDY    64  63  94 SE8       29.70F
MASON CITY     TSTM      63  61  93 S15       29.77F
FOREST CITY *  RAIN      63  63 100 S14G20    29.74
IOWA FALLS *   RAIN      63  61  94 W7        29.85R
$$

IAZ007>011-017>019-026>030-037>042-050>054-066-010400-
   NORTHEAST IOWA

CITY           SKY/WX    TMP DP  RH WIND       PRES   REMARKS
CEDAR RAPIDS   CLOUDY    78  71  79 S14G20    29.76S HX  80
CHARLES CITY * RAIN      70  64  83 W33G51    29.86R
CLINTON *      PTCLDY    73  70  88 S7        29.84R
DECORAH *      PTCLDY    75  72  88 S10       29.75R
DUBUQUE        CLOUDY    74  69  85 S13       29.79S
MONTICELLO *   CLEAR     77  72  83 SE10      29.77F
OELWEIN *      CLOUDY    75  72  88 S9        29.78R
WATERLOO       LGT RAIN  77  71  82 S13       29.75R
$$

IAZ064-065-067-068-078-010400-
   EAST CENTRAL IOWA

CITY           SKY/WX    TMP DP  RH WIND       PRES   REMARKS
DAVENPORT      PTCLDY    78  67  68 S15       29.81S HX  80
IOWA CITY      CLOUDY    77  72  84 SE10      29.78F
MT. PLEASANT * MOCLDY    77  68  73 SE10      29.79F
MUSCATINE *    CLEAR     79  70  73 SE10      29.79F HX  81
QUAD CITIES    PTCLDY    75  68  78 S13       29.81R
$$

IAZ062-063-075>077-085>089-095>099-010400-
   SOUTHEAST IOWA

CITY           SKY/WX    TMP DP  RH WIND       PRES   REMARKS
BURLINGTON     PTCLDY    78  70  76 S9        29.81S HX  80
FAIRFIELD *    MOCLDY    77  70  78 SE15G22   29.77F
FORT MADISON * CLEAR     79  70  73 SE9       29.82F HX  81
KEOKUK *       CLEAR     79  70  73 SE10      29.81S HX  81
OSKALOOSA *      N/A     79  70  73 S14G20    29.75F HX  81
CENTERVILLE *  CLEAR     77  66  69 SE10G18   29.76F
OTTUMWA        CLOUDY    79  68  69 S17       29.74F HX  81
WASHINGTON *   CLEAR     77  72  83 S13G22    29.78F
$$

ABBREVIATIONS USED IN REMARKS
   TC - TEMPERATURES IN CELSIUS
  WCI - WIND CHILL INDEX
   HX - HEAT INDEX
  VSB - VISIBILITY
$$



USA.gov is the U.S. government's official web portal to all federal, state and local government web resources and services.